Wind_Speed
9 10 9 10 10 12 13 13 12 13 14 16 17 18 18 17 16 17 18 19 19 19 18 16 16 16 15 14 11 9 9 10 11 10 10 9 7 6 4 3 3 4 5
8 8 8 8 9 11 12 12 11 10 11 12 14 15 15 15 14 14 15 17 18 18 18 17 16 16 16 15 14 10 8 7 8 8 8 7 7 6 4 3 2 2 2
8 7 7 7 8 9 10 10 10 9 9 10 11 12 12 12 13 13 13 14 15 16 16 16 15 15 14 14 14 13 10 7 5 5 6 6 6 5 5 4 3 2 2
6 6 5 6 7 8 8 9 9 8 8 8 9 9 9 9 10 10 11 12 12 13 13 13 13 13 12 12 12 12 11 9 7 5 4 4 4 4 5 4 4 3 2
4 3 4 5 6 6 7 7 7 7 7 6 6 6 6 6 7 8 9 10 10 10 11 10 10 10 10 9 9 9 9 9 8 7 4 3 3 3 3 3 3 3 3
5 5 5 5 5 6 6 6 6 6 6 5 5 4 4 4 5 6 7 8 8 8 8 9 9 8 7 7 7 7 7 7 8 8 7 4 2 3 3 2 1 1 1
9 9 8 8 7 7 6 5 4 5 5 5 5 4 4 4 5 6 7 8 9 9 9 9 9 9 8 8 7 7 6 6 6 7 7 6 3 2 4 4 3 2 1
10 10 10 9 9 8 7 5 4 4 5 5 5 6 6 7 8 9 10 11 11 12 11 10 10 10 10 10 9 9 8 7 7 7 6 5 4 2 4 6 6 5 4
10 10 11 10 10 9 8 7 6 6 6 6 7 8 9 11 12 13 13 14 15 15 14 13 12 12 11 11 11 10 10 9 9 9 8 6 4 3 3 5 7 7 7
9 10 10 11 10 10 10 10 9 9 10 10 11 12 14 15 16 17 17 17 17 18 18 17 16 15 14 14 13 12 12 11 11 10 10 9 7 5 4 4 5 7 8
12 11 11 11 12 12 13 14 15 15 16 16 17 17 18 19 19 20 20 20 20 20 20 20 20 19 19 17 16 15 14 13 12 12 12 12 11 8 6 5 5 6 8
18 17 17 16 17 17 18 19 20 21 22 22 23 23 23 23 24 24 25 25 24 24 23 23 24 23 23 21 19 18 16 15 14 14 14 14 14 13 11 9 8 8 8
23 23 23 23 23 23 24 25 26 26 27 27 28 28 28 28 29 29 29 30 29 29 28 28 27 27 27 26 25 23 20 18 17 16 16 16 17 17 15 14 13 12 10
26 27 27 28 28 29 29 30 30 30 31 32 32 32 32 33 33 33 33 33 34 34 34 33 32 31 30 30 28 27 25 23 21 19 19 19 19 19 19 18 18 16 15
29 30 31 32 33 33 34 34 34 34 34 35 36 36 37 37 37 37 37 36 37 38 38 38 37 36 35 34 32 31 29 28 26 24 23 22 22 22 21 21 21 20 19
31 31 32 33 34 35 36 37 38 38 38 38 39 40 41 41 41 40 39 37 37 38 38 38 39 39 38 37 35 34 33 32 30 29 28 27 26 26 25 24 24 24 23
32 32 32 32 32 33 34 35 37 38 39 39 39 39 41 41 41 40 39 38 39 39 38 38 38 38 38 38 37 37 36 35 34 32 31 31 31 31 30 29 28 28 27
30 30 30 29 30 30 30 31 32 34 35 36 36 37 38 40 40 40 40 39 40 41 40 39 38 38 37 37 37 37 37 36 35 35 34 33 34 34 34 34 34 33 32
30 31 30 30 29 28 29 29 30 31 33 35 37 38 39 40 41 41 41 40 40 41 41 41 41 41 40 39 39 39 39 38 36 35 35 34 34 34 35 36 37 37 36
33 33 33 31 29 29 29 30 30 32 34 35 37 38 39 40 41 42 42 42 42 41 41 42 42 42 42 41 41 41 39 38 37 36 35 35 34 33 34 36 37 39 39
35 34 33 31 30 30 30 30 31 32 33 35 36 37 38 38 39 40 40 40 40 40 39 39 40 41 40 40 41 39 38 38 37 36 36 35 34 34 34 34 36 37 38
34 33 33 32 30 30 30 31 32 33 35 36 37 38 39 39 39 39 39 39 38 38 37 37 38 38 37 38 39 38 37 36 36 37 37 36 34 34 34 34 35 35 37
32 32 32 32 31 31 31 31 31 32 33 35 36 38 40 41 41 40 40 40 40 39 38 38 37 37 36 37 38 38 37 35 36 36 36 36 34 34 34 33 33 33 35
31 31 32 32 30 29 28 28 28 29 30 32 34 36 37 39 40 41 41 41 41 41 40 39 38 38 37 37 38 38 38 36 36 35 36 37 36 35 34 33 33 32 33
30 31 31 29 27 25 24 23 23 25 27 29 32 34 35 37 38 39 40 41 41 42 41 40 39 38 38 37 38 38 38 38 37 36 35 35 36 35 34 34 33 32 32
29 30 28 25 23 22 21 21 22 24 26 28 30 33 34 35 37 37 38 39 41 41 42 41 40 39 38 38 38 38 38 38 38 36 35 35 36 36 35 34 34 33 32
Wind_Direction
73 63 51 47 49 51 53 55 59 61 59 55 52 50 48 47 44 41 37 35 37 40 42 45 46 44 44 45 46 49 48 44 43 46 50 52 48 48 62 90 98 98 107
66 58 44 35 40 46 49 48 48 49 48 46 45 45 45 43 40 36 32 30 31 35 39 42 44 43 43 44 44 43 43 45 44 42 45 54 57 57 61 86 129 150 138
65 57 42 32 35 40 43 42 40 37 34 33 35 38 40 39 36 33 30 28 26 29 33 37 41 41 41 42 44 44 42 38 35 35 34 40 51 60 66 73 97 143 175
68 59 44 33 34 36 36 35 34 30 24 23 26 29 33 34 31 27 25 24 23 22 25 29 33 36 36 38 40 43 43 42 34 23 16 16 23 38 55 65 73 84 99
45 40 30 23 23 23 23 21 22 20 16 12 13 17 21 23 20 16 14 16 16 12 9 11 15 19 22 25 31 36 37 38 38 32 18 358 349 356 17 43 58 69 70
342 337 338 346 352 356 2 6 6 4 359 353 350 350 352 355 357 357 356 357 358 355 349 346 347 349 351 355 1 12 21 23 25 31 33 23 345 306 306 324 357 30 61
323 324 330 337 339 341 345 351 352 347 341 337 333 330 331 332 332 333 332 331 332 332 332 328 326 325 324 324 326 330 340 351 355 7 26 34 24 295 277 272 272 273 275
319 321 330 336 338 337 335 332 330 327 324 324 322 322 323 325 324 320 316 314 313 314 314 313 311 311 311 311 312 311 312 314 319 329 347 16 26 345 279 266 260 259 261
320 322 327 330 330 327 322 318 313 311 310 308 304 304 307 310 311 311 307 306 305 305 304 301 299 299 301 303 304 306 305 302 297 298 306 321 345 351 318 278 260 254 255
324 324 323 320 320 318 314 310 306 305 303 301 297 295 295 297 301 303 303 303 303 303 302 299 295 293 292 293 295 296 297 295 290 284 283 287 294 306 317 300 272 258 254
311 310 308 307 306 305 304 303 301 300 299 298 295 294 292 292 293 296 298 299 300 300 299 297 295 293 290 289 288 289 290 289 285 279 275 274 274 275 282 289 282 270 262
298 295 293 293 293 294 294 294 294 294 294 294 293 293 291 290 289 290 292 293 293 293 292 291 290 289 288 285 284 284 284 284 280 274 271 268 264 261 260 264 267 267 267
294 292 290 289 288 288 288 288 288 289 290 290 290 289 289 287 287 287 288 288 288 286 285 283 282 282 282 281 279 277 277 277 276 273 268 265 261 257 255 255 258 259 261
294 292 290 289 288 286 284 283 284 284 285 285 285 284 284 283 282 282 282 283 283 282 280 277 275 274 274 274 274 272 271 270 270 270 268 264 262 258 255 254 255 257 259
292 291 289 288 286 284 283 281 281 280 280 281 281 281 280 279 278 278 277 277 278 277 276 274 272 269 268 268 268 268 267 267 267 266 266 265 263 261 257 255 254 255 256
292 291 289 287 285 283 281 280 280 279 279 279 279 279 279 278 276 276 276 276 276 276 274 273 271 270 269 269 267 266 265 264 264 264 264 265 265 263 261 258 255 254 255
292 291 288 285 284 283 283 282 282 282 282 282 281 280 280 279 277 276 276 275 274 275 277 275 275 275 273 270 268 267 266 265 265 264 264 264 264 264 262 259 257 255 254
294 292 289 287 287 286 286 286 285 285 285 285 283 282 282 282 280 278 276 277 276 276 277 277 276 276 274 272 272 270 269 269 268 267 267 267 264 264 264 261 259 257 256
295 294 292 290 290 289 289 290 289 288 287 285 284 283 282 281 281 280 280 278 277 276 276 276 276 275 273 273 273 273 273 272 273 272 270 267 265 264 264 263 261 258 257
298 296 295 293 294 295 295 294 295 295 294 292 289 287 285 283 281 280 279 278 277 276 275 274 274 273 272 273 272 273 275 275 274 273 271 268 266 266 264 262 260 259 258
298 297 296 296 297 299 299 300 300 301 300 297 294 291 288 285 283 281 280 279 278 276 275 274 273 272 272 271 271 271 271 273 272 271 271 269 267 267 266 262 260 259 259
297 296 297 299 302 304 306 306 306 305 304 301 298 295 291 287 283 281 279 278 277 276 275 274 273 272 271 271 271 271 270 270 272 271 270 270 268 268 268 266 261 260 259
294 297 300 303 307 309 309 309 309 308 308 306 304 301 296 292 287 283 279 277 275 275 274 274 273 272 271 270 271 271 271 269 268 270 271 271 270 267 268 267 264 262 260
292 296 301 304 305 305 306 308 310 311 313 313 311 307 302 297 291 285 281 278 276 275 274 274 273 272 271 270 270 271 271 271 269 268 269 270 270 270 268 266 267 266 264
291 293 296 296 296 298 302 308 313 316 319 320 320 317 311 305 298 290 283 278 275 274 274 274 273 272 271 270 270 270 270 271 271 270 267 268 269 271 271 269 267 266 265
286 287 287 287 288 292 298 305 311 316 320 323 324 324 320 313 305 297 288 281 276 274 273 273 273 272 270 270 269 270 269 270 270 269 269 268 269 270 270 268 266 263 262
Height
5916 5916 5917 5916 5915 5913 5912 5911 5911 5911 5911 5910 5910 5909 5908 5908 5907 5907 5906 5905 5904 5903 5902 5901 5900 5899 5898 5897 5896 5895 5894 5894 5893 5892 5892 5891 5891 5891 5891 5891 5891 5891 5891
5917 5916 5916 5916 5915 5914 5913 5912 5912 5911 5911 5911 5910 5910 5909 5909 5908 5908 5907 5906 5905 5904 5903 5902 5901 5900 5899 5898 5896 5895 5894 5894 5894 5894 5893 5893 5892 5892 5892 5892 5892 5893 5893
5917 5916 5916 5916 5915 5914 5913 5913 5912 5912 5911 5911 5911 5910 5910 5909 5909 5908 5907 5906 5905 5905 5904 5903 5902 5901 5900 5899 5898 5896 5895 5894 5894 5894 5894 5893 5893 5893 5893 5893 5893 5893 5893
5917 5916 5916 5915 5914 5914 5913 5913 5912 5912 5911 5911 5911 5910 5910 5909 5909 5908 5907 5906 5905 5905 5904 5903 5902 5902 5901 5900 5899 5897 5896 5894 5894 5894 5893 5893 5893 5893 5893 5893 5893 5892 5892
5917 5916 5916 5915 5914 5913 5912 5912 5912 5911 5911 5911 5910 5910 5909 5908 5908 5907 5906 5906 5905 5904 5904 5903 5902 5901 5901 5900 5899 5897 5896 5894 5893 5893 5892 5892 5892 5892 5892 5892 5892 5892 5892
5917 5916 5915 5914 5913 5912 5912 5911 5911 5910 5910 5910 5909 5909 5908 5907 5907 5906 5905 5905 5904 5903 5903 5902 5901 5900 5900 5899 5898 5897 5896 5894 5893 5892 5891 5890 5890 5890 5890 5890 5891 5891 5891
5917 5916 5915 5914 5913 5912 5911 5910 5910 5909 5909 5909 5908 5908 5907 5906 5906 5905 5904 5903 5902 5901 5901 5900 5899 5898 5898 5897 5896 5896 5895 5893 5892 5891 5890 5889 5888 5888 5888 5888 5889 5889 5890
5916 5915 5914 5913 5912 5912 5911 5910 5909 5909 5908 5908 5908 5907 5906 5906 5905 5904 5903 5902 5901 5900 5899 5898 5897 5896 5895 5894 5894 5893 5893 5892 5891 5889 5888 5887 5887 5886 5886 5886 5886 5887 5887
5915 5914 5913 5912 5912 5911 5910 5910 5909 5908 5908 5907 5907 5906 5905 5905 5904 5903 5902 5901 5900 5898 5897 5896 5895 5894 5893 5892 5891 5891 5890 5890 5889 5888 5887 5886 5885 5884 5883 5883 5884 5884 5885
5914 5913 5912 5912 5911 5910 5909 5909 5908 5907 5907 5906 5905 5905 5904 5903 5902 5901 5900 5899 5898 5897 5895 5894 5893 5892 5891 5890 5889 5888 5887 5887 5886 5885 5885 5884 5883 5882 5881 5881 5881 5882 5882
5912 5911 5910 5910 5909 5908 5907 5907 5906 5905 5905 5904 5903 5902 5901 5900 5899 5898 5897 5896 5895 5894 5893 5892 5891 5890 5888 5887 5886 5885 5884 5884 5883 5882 5882 5882 5881 5880 5880 5879 5879 5879 5879
5910 5909 5908 5907 5906 5905 5904 5904 5903 5902 5901 5901 5900 5899 5898 5897 5895 5894 5893 5892 5892 5891 5889 5888 5887 5886 5885 5884 5883 5882 5881 5880 5879 5879 5878 5878 5878 5878 5877 5877 5877 5876 5876
5906 5905 5904 5903 5902 5901 5900 5899 5898 5898 5897 5896 5895 5894 5893 5892 5890 5889 5888 5887 5886 5885 5884 5883 5882 5881 5880 5879 5878 5877 5877 5876 5875 5875 5874 5874 5874 5874 5874 5875 5874 5874 5874
5901 5900 5899 5898 5897 5896 5895 5894 5893 5892 5891 5889 5888 5887 5887 5885 5884 5883 5882 5881 5879 5878 5877 5876 5876 5875 5874 5873 5872 5871 5871 5871 5871 5870 5870 5869 5869 5869 5870 5871 5871 5871 5871
5896 5894 5892 5891 5890 5889 5887 5886 5886 5885 5884 5882 5881 5880 5878 5877 5876 5875 5874 5873 5872 5870 5869 5868 5867 5867 5866 5865 5865 5865 5865 5865 5865 5865 5864 5864 5864 5864 5864 5865 5866 5866 5867
5890 5888 5886 5884 5882 5881 5880 5879 5878 5877 5876 5874 5873 5871 5869 5868 5867 5865 5865 5864 5863 5861 5860 5859 5859 5858 5858 5857 5857 5857 5857 5857 5857 5858 5858 5858 5858 5858 5858 5859 5860 5861 5862
5884 5882 5880 5878 5876 5874 5872 5871 5870 5868 5867 5866 5864 5862 5860 5858 5857 5856 5855 5855 5854 5852 5851 5851 5850 5850 5849 5849 5849 5849 5848 5848 5849 5850 5850 5850 5851 5851 5852 5852 5853 5854 5855
5878 5876 5873 5871 5869 5867 5866 5864 5862 5861 5859 5857 5855 5853 5851 5849 5847 5847 5846 5846 5845 5843 5843 5842 5842 5841 5841 5840 5840 5840 5839 5840 5840 5841 5841 5842 5842 5843 5843 5844 5845 5847 5848
5871 5869 5867 5865 5863 5861 5859 5857 5855 5853 5852 5849 5847 5845 5843 5841 5839 5838 5837 5837 5836 5835 5834 5833 5833 5832 5832 5832 5831 5831 5831 5831 5831 5831 5832 5833 5833 5834 5834 5835 5836 5838 5839
5864 5862 5860 5858 5856 5854 5852 5850 5848 5846 5844 5841 5839 5837 5834 5832 5830 5829 5828 5827 5826 5825 5824 5823 5823 5822 5822 5822 5822 5822 5822 5822 5822 5823 5823 5824 5824 5825 5825 5826 5827 5828 5830
5857 5854 5852 5851 5849 5847 5845 5842 5840 5838 5835 5833 5830 5828 5825 5823 5821 5819 5818 5816 5815 5815 5814 5813 5812 5812 5812 5812 5811 5812 5813 5813 5813 5814 5813 5814 5814 5815 5816 5817 5817 5818 5820
5850 5848 5846 5844 5842 5839 5837 5834 5832 5830 5827 5824 5821 5818 5816 5813 5812 5810 5808 5807 5805 5805 5804 5803 5802 5802 5802 5802 5801 5801 5802 5804 5804 5803 5803 5804 5805 5805 5806 5807 5808 5809 5810
5844 5841 5839 5837 5835 5832 5830 5828 5825 5822 5819 5816 5813 5809 5806 5803 5801 5799 5798 5797 5796 5795 5794 5794 5792 5792 5792 5792 5791 5790 5791 5794 5794 5794 5794 5794 5794 5795 5796 5797 5798 5799 5800
5839 5836 5833 5831 5829 5827 5824 5822 5819 5816 5813 5809 5805 5801 5796 5792 5790 5787 5786 5785 5784 5784 5783 5783 5782 5782 5782 5782 5781 5780 5781 5782 5783 5785 5785 5784 5784 5785 5786 5787 5788 5789 5789
5833 5831 5828 5826 5824 5821 5819 5816 5813 5810 5806 5802 5798 5793 5788 5783 5779 5776 5774 5773 5772 5772 5771 5771 5771 5771 5771 5771 5771 5771 5771 5771 5772 5773 5775 5775 5775 5775 5776 5777 5778 5779 5780
5828 5825 5823 5821 5819 5816 5813 5810 5807 5804 5800 5796 5792 5787 5781 5775 5770 5766 5764 5762 5760 5760 5759 5759 5759 5760 5760 5760 5760 5760 5760 5761 5762 5762 5764 5765 5765 5766 5767 5767 5768 5769 5771